| time (UTC) | temp F | wind direction | speed knots | gust knots | rain 1hr in | rain 24hr in | rain mn in | humidity % | barometer mb |
| 20260505083051 | 40 | 0 | 0.0 | 0.0 | 0.00 | 0.00 | 0.00 | 57 | 1017.6 |
| 20260505081553 | 40 | 0 | 0.0 | 5.2 | 0.00 | 0.00 | 0.00 | 56 | 1017.5 |
| 20260505080103 | 41 | 345 | 3.5 | 7.0 | 0.00 | 0.00 | 0.00 | 55 | 1017.6 |
| 20260505074556 | 41 | 350 | 4.3 | 9.6 | 0.00 | 0.00 | 0.00 | 54 | 1017.4 |
| 20260505073058 | 41 | 342 | 7.0 | 13.0 | 0.00 | 0.00 | 0.00 | 52 | 1017.4 |
| 20260505071550 | 41 | 16 | 9.6 | 13.0 | 0.00 | 0.00 | 0.00 | 51 | 1017.4 |
| 20260505070055 | 39 | 36 | 2.6 | 5.2 | 0.00 | 0.00 | 0.00 | 54 | 1017.5 |
| 20260505064555 | 37 | 46 | 1.7 | 4.3 | 0.00 | 0.00 | 0.00 | 55 | 1017.5 |
| 20260505063111 | 37 | 0 | 1.7 | 5.2 | 0.00 | 0.00 | 0.00 | 54 | 1017.5 |
| 20260505061555 | 37 | 0 | 0.0 | 2.6 | 0.00 | 0.00 | 0.00 | 54 | 1017.4 |
| 20260505060058 | 38 | 46 | 0.0 | 3.5 | 0.00 | 0.00 | 0.00 | 53 | 1017.2 |
| 20260505054608 | 39 | 46 | 3.5 | 5.2 | 0.00 | 0.00 | 0.00 | 51 | 1017.1 |
| 20260505053056 | 40 | 46 | 2.6 | 5.2 | 0.00 | 0.00 | 0.00 | 51 | 1017.1 |
| 20260505051555 | 39 | 46 | 2.6 | 4.3 | 0.00 | 0.00 | 0.00 | 52 | 1016.9 |
| 20260505041600 | 41 | 46 | 3.5 | 6.1 | 0.00 | 0.00 | 0.00 | 48 | 1017.1 |
| 20260505040058 | 42 | 47 | 4.3 | 8.7 | 0.00 | 0.00 | 0.00 | 46 | 1016.9 |
| 20260505034557 | 42 | 51 | 6.1 | 8.7 | 0.00 | 0.00 | 0.00 | 46 | 1016.7 |
| 20260505033105 | 43 | 50 | 7.8 | 16.5 | 0.00 | 0.00 | 0.00 | 44 | 1016.4 |
| 20260505031606 | 44 | 36 | 11.3 | 13.9 | 0.00 | 0.00 | 0.00 | 44 | 1016.2 |
| 20260505030113 | 44 | 42 | 11.3 | 14.8 | 0.00 | 0.00 | 0.00 | 42 | 1015.9 |
| 20260505024603 | 45 | 42 | 12.2 | 16.5 | 0.00 | 0.00 | 0.00 | 40 | 1015.5 |
| 20260505023054 | 46 | 43 | 11.3 | 20.0 | 0.00 | 0.00 | 0.00 | 38 | 1015.5 |
| 20260505021558 | 49 | 35 | 12.2 | 16.5 | 0.00 | 0.00 | 0.00 | 32 | 1015.3 |
| 20260505020054 | 50 | 5 | 11.3 | 19.1 | 0.00 | 0.00 | 0.00 | 28 | 1015.1 |
| 20260505014614 | 51 | 360 | 13.9 | 20.9 | 0.00 | 0.00 | 0.00 | 26 | 1014.9 |
| 20260505013053 | 52 | 5 | 13.0 | 19.1 | 0.00 | 0.00 | 0.00 | 24 | 1014.8 |
| 20260505011606 | 53 | 350 | 10.4 | 18.2 | 0.00 | 0.00 | 0.00 | 23 | 1014.5 |
| 20260505010054 | 53 | 332 | 11.3 | 24.3 | 0.00 | 0.00 | 0.00 | 23 | 1014.5 |
| 20260505004555 | 54 | 316 | 13.9 | 24.3 | 0.00 | 0.00 | 0.00 | 22 | 1014.5 |
| 20260505003055 | 54 | 360 | 14.8 | 21.7 | 0.00 | 0.00 | 0.00 | 22 | 1014.5 |
| 20260505001557 | 54 | 344 | 14.8 | 21.7 | 0.00 | 0.00 | 0.00 | 23 | 1014.5 |
| 20260505000107 | 55 | 321 | 17.4 | 24.3 | 0.00 | 0.00 | 0.00 | 23 | 1014.5 |
| 20260504234559 | 55 | 346 | 14.8 | 23.5 | 0.00 | 0.00 | 0.00 | 24 | 1014.6 |
| 20260504233108 | 55 | 348 | 14.8 | 26.1 | 0.00 | 0.00 | 0.00 | 24 | 1014.7 |
| 20260504231601 | 55 | 317 | 14.8 | 20.9 | 0.00 | 0.00 | 0.00 | 23 | 1014.6 |
| 20260504230055 | 54 | 323 | 16.5 | 25.2 | 0.00 | 0.00 | 0.00 | 25 | 1014.7 |
| 20260504224558 | 56 | 318 | 15.6 | 24.3 | 0.00 | 0.00 | 0.00 | 27 | 1014.5 |
| 20260504223127 | 55 | 340 | 13.0 | 24.3 | 0.00 | 0.00 | 0.00 | 30 | 1014.5 |
| 20260504221556 | 55 | 319 | 13.9 | 20.0 | 0.00 | 0.00 | 0.00 | 30 | 1014.5 |
| 20260504220057 | 53 | 323 | 13.0 | 23.5 | 0.00 | 0.00 | 0.00 | 31 | 1014.6 |
| 20260504214555 | 53 | 330 | 17.4 | 23.5 | 0.00 | 0.00 | 0.00 | 32 | 1014.7 |
| 20260504213102 | 53 | 337 | 14.8 | 23.5 | 0.00 | 0.00 | 0.00 | 32 | 1014.8 |
| 20260504211548 | 54 | 11 | 13.9 | 23.5 | 0.00 | 0.00 | 0.00 | 33 | 1014.9 |
| 20260504210056 | 53 | 330 | 18.2 | 28.7 | 0.00 | 0.00 | 0.00 | 33 | 1014.9 |
| 20260504204554 | 55 | 360 | 17.4 | 26.1 | 0.00 | 0.00 | 0.00 | 32 | 1014.8 |
| 20260504203108 | 55 | 352 | 17.4 | 22.6 | 0.00 | 0.00 | 0.00 | 31 | 1014.6 |
| 20260504201559 | 55 | 342 | 16.5 | 25.2 | 0.00 | 0.00 | 0.00 | 32 | 1014.6 |
| 20260504200056 | 54 | 324 | 16.5 | 27.8 | 0.00 | 0.00 | 0.00 | 34 | 1014.6 |
| 20260504194550 | 53 | 336 | 12.2 | 23.5 | 0.00 | 0.00 | 0.00 | 35 | 1014.5 |
| 20260504193104 | 53 | 329 | 13.9 | 20.9 | 0.00 | 0.00 | 0.00 | 35 | 1014.7 |
| 20260504191559 | 55 | 338 | 16.5 | 23.5 | 0.00 | 0.00 | 0.00 | 34 | 1014.8 |
| 20260504190053 | 54 | 322 | 13.9 | 24.3 | 0.00 | 0.00 | 0.00 | 35 | 1014.8 |
| 20260504184558 | 53 | 339 | 12.2 | 20.0 | 0.00 | 0.00 | 0.00 | 36 | 1014.7 |
| 20260504183053 | 54 | 319 | 12.2 | 18.2 | 0.00 | 0.00 | 0.00 | 35 | 1014.7 |
| 20260504181600 | 54 | 352 | 14.8 | 22.6 | 0.00 | 0.00 | 0.00 | 36 | 1014.7 |
| 20260504180054 | 54 | 344 | 12.2 | 20.0 | 0.00 | 0.00 | 0.00 | 36 | 1014.8 |
| 20260504174549 | 53 | 311 | 14.8 | 21.7 | 0.00 | 0.00 | 0.00 | 38 | 1014.9 |
| 20260504173052 | 52 | 309 | 12.2 | 20.0 | 0.00 | 0.00 | 0.00 | 41 | 1015.0 |
| 20260504171555 | 52 | 329 | 10.4 | 19.1 | 0.00 | 0.00 | 0.00 | 41 | 1014.9 |